Location: Monrovia
(34.7865°N, 86.7139°W)
Time: 00:48:58
(UTC+00:00)

Cosmos 2082 Rocket - Pass Details

Date: 14 July 2020
Orbit: 834 x 853 km, 71.0° (Epoch: 12 August)

Event Time Altitude Azimuth Distance (km) Brightness Sun altitude
Exits shadow 09:10:10 17° 270° (W) 2,046 3.8 -16.7°
Maximum altitude 09:12:34 21° 302° (WNW) 1,808 3.8 -16.4°
Drops below altitude 10° 09:16:52 10° 351° (N) 2,484 5.1 -15.7°
Sets 09:19:56 0° 7° (N) 3,422 6.1 -15.2°
